Wetbulb
78.34 78.53 78.51 78.74 79.73 80.26 78.99 79.22 79.16 79.48 79.98 79.65 79.33 79.15 78.99 78.77 79.34 79.61 80.15 79.34 77.44 75.59 74.25 73.57 72.73 72.47 70.35 68.37 64.31 62.26 60.59 61.00 57.95 60.27 60.56 62.45 62.52 60.66 60.47 62.46 62.06 59.58 57.93
78.88 79.93 80.02 80.66 80.75 80.10 80.42 79.22 79.57 79.94 80.06 79.76 79.75 79.39 79.03 79.07 79.80 80.64 78.86 78.93 76.52 73.94 73.53 73.18 71.12 70.24 68.83 69.25 62.45 65.51 63.34 63.94 59.78 61.06 61.23 58.96 62.09 62.66 62.77 63.55 60.15 59.25 56.23
78.60 79.20 80.49 80.73 81.41 81.65 81.83 81.69 80.92 80.08 79.57 79.36 79.28 79.08 78.96 79.65 80.18 79.94 79.54 76.64 75.37 74.29 74.09 72.19 70.95 67.58 64.86 63.88 64.25 62.97 62.38 61.55 62.08 58.66 57.36 58.83 60.09 60.31 61.00 62.39 61.87 58.86 57.09
78.12 78.94 79.48 79.68 80.63 79.62 81.47 80.73 79.87 79.95 79.41 79.19 79.45 79.28 79.56 79.81 79.99 79.91 77.77 76.18 75.16 73.84 73.30 71.50 67.73 64.70 64.27 64.35 63.41 64.75 63.76 63.08 63.35 57.47 56.00 57.85 57.76 60.56 59.56 57.81 56.34 58.12 55.85
78.08 78.25 79.22 79.99 80.02 79.57 79.57 79.45 79.51 79.51 79.48 79.51 79.08 79.17 79.83 79.49 78.82 79.64 75.57 74.97 74.07 72.60 69.76 66.98 64.67 62.65 61.61 61.10 61.77 63.19 65.31 60.47 58.00 56.06 54.65 56.07 55.90 56.23 55.55 57.01 56.20 57.29 57.17
79.22 78.53 79.92 80.33 80.28 80.47 80.02 79.67 79.63 79.31 79.51 79.64 79.12 78.98 79.14 78.50 67.14 68.89 73.56 74.78 72.76 68.30 62.96 61.35 61.48 61.17 59.64 60.20 60.20 59.32 59.92 61.78 59.14 55.47 53.76 54.46 55.09 55.31 56.83 56.34 56.88 56.27 53.53
79.79 79.55 80.22 80.70 80.58 80.91 80.11 80.38 80.12 80.12 80.39 79.53 79.41 79.41 79.44 78.04 65.19 65.94 68.64 73.51 70.59 66.74 64.01 63.67 61.46 60.35 61.88 61.99 59.56 59.15 58.77 58.40 58.92 58.31 54.70 53.93 53.58 55.01 56.90 56.87 59.11 58.51 55.57
79.47 79.45 80.27 80.66 80.30 81.09 81.25 81.26 81.81 81.30 80.62 80.10 79.59 80.16 80.93 75.10 62.82 63.20 66.10 73.36 70.14 67.83 65.90 64.59 63.34 63.91 63.59 63.47 62.40 61.08 58.93 58.21 57.84 57.40 57.33 56.14 55.64 57.61 59.57 60.64 60.65 60.95 59.47
77.81 79.22 80.11 80.56 80.51 80.78 80.23 81.21 81.17 81.34 81.20 79.89 79.87 80.52 78.82 71.56 59.93 60.78 68.69 71.57 68.38 66.93 65.89 65.17 64.69 63.23 58.18 59.88 62.42 61.58 61.37 60.69 55.39 56.50 54.80 55.33 54.90 56.48 57.07 57.88 56.48 56.28 55.77
78.07 78.61 80.31 80.71 80.88 80.63 81.34 81.71 82.00 81.62 81.26 79.00 79.95 81.43 71.45 71.28 57.59 58.77 66.98 70.00 67.49 65.60 67.01 64.12 61.26 61.08 56.25 58.02 63.02 61.88 60.43 59.84 58.94 59.65 59.37 56.96 58.96 59.31 57.25 58.20 57.08 54.58 54.13
78.15 79.12 80.65 81.17 81.70 81.94 82.34 82.37 81.97 81.94 81.38 81.05 80.84 79.22 76.36 72.00 67.43 55.78 57.04 70.93 67.91 65.72 62.24 61.07 60.30 54.57 53.94 55.25 55.99 62.64 60.71 61.15 59.37 59.62 58.33 56.16 58.97 58.71 57.95 55.68 56.22 55.65 52.52
79.77 79.77 80.17 80.82 79.38 79.96 82.37 82.37 82.08 82.25 81.79 81.00 78.71 76.32 74.91 73.00 62.56 55.09 54.40 60.82 65.58 68.04 64.79 61.95 58.38 51.75 50.28 52.44 56.12 53.45 54.31 56.30 58.13 57.15 55.96 54.99 55.88 56.82 58.89 56.41 57.30 57.45 56.48
80.34 80.57 80.65 80.89 79.94 81.80 81.55 80.94 79.52 81.38 78.10 78.88 75.76 73.62 71.69 71.75 67.90 53.95 53.76 56.88 60.05 68.29 65.33 58.46 51.76 48.24 49.86 52.75 52.63 52.89 52.06 59.70 57.09 56.34 55.43 54.63 56.39 57.45 61.54 59.46 58.99 58.15 58.47
79.91 80.61 80.94 80.75 80.46 81.12 79.80 79.32 76.85 76.89 76.81 77.63 76.21 73.19 72.32 71.78 69.38 66.18 65.77 62.90 57.97 59.98 56.27 56.77 56.50 56.07 54.47 56.37 56.40 56.78 60.03 58.94 57.40 56.77 56.11 56.00 57.89 58.23 59.74 60.67 60.95 60.29 58.15
78.77 78.65 78.69 78.66 78.36 79.07 79.78 75.53 76.04 79.17 75.27 77.50 76.86 75.49 73.94 72.79 69.84 63.83 64.34 67.58 66.90 60.94 60.36 59.00 58.34 58.77 59.09 57.97 60.55 59.09 58.20 58.76 57.48 57.74 56.81 55.91 56.21 56.70 58.42 60.33 60.43 59.79 57.73
78.03 77.90 77.47 76.48 76.96 77.01 76.82 75.18 54.11 54.18 53.01 55.71 60.63 70.62 75.41 64.08 53.85 51.85 51.93 49.89 49.38 50.05 59.36 58.39 58.74 59.77 59.13 59.28 59.79 59.22 58.91 58.65 57.73 57.78 57.29 55.94 55.35 55.62 55.73 57.67 60.25 59.62 57.62
77.56 76.05 75.42 73.26 75.94 76.32 76.59 76.55 76.15 66.36 49.75 47.76 50.09 54.25 58.48 56.61 51.11 48.41 45.60 45.30 47.24 50.02 61.16 60.19 60.70 60.70 60.14 60.24 59.99 59.44 57.94 58.45 61.56 57.89 57.64 56.59 55.83 55.68 55.77 55.73 59.56 59.33 58.12
79.17 66.87 77.23 75.73 75.81 76.34 77.39 77.39 77.25 76.18 75.33 74.27 52.62 52.68 47.59 48.07 47.44 44.21 43.39 48.56 55.12 55.72 62.90 61.85 61.95 61.59 61.16 60.51 60.08 59.66 59.11 58.27 57.95 57.73 57.63 57.05 56.57 55.79 55.35 55.11 56.67 58.34 58.01
71.45 76.34 78.56 78.48 78.66 76.63 77.86 78.25 77.31 76.75 76.48 75.07 66.45 54.42 47.75 41.81 42.31 42.31 45.46 63.93 61.53 62.26 63.85 63.03 63.21 62.63 61.76 61.57 62.24 62.34 61.50 58.37 57.74 57.77 57.62 57.41 56.52 55.47 54.96 54.77 54.13 51.06 54.14
71.95 65.30 68.70 77.18 77.10 77.31 77.31 77.34 77.05 77.56 76.33 74.99 72.55 69.20 54.72 53.03 57.34 54.12 56.14 64.96 66.09 65.82 64.75 63.64 63.53 63.80 63.42 63.85 63.09 62.91 60.94 58.83 58.55 57.69 57.61 57.71 56.75 56.34 55.21 55.23 55.24 54.75 54.59
68.58 72.68 66.67 74.03 75.23 76.99 77.21 77.13 76.96 75.65 75.13 75.67 74.77 69.46 55.05 63.49 59.44 57.66 56.82 63.10 68.00 68.34 66.02 64.47 63.52 63.47 64.45 63.96 62.80 60.92 60.06 59.06 58.28 57.75 57.41 57.75 57.32 56.10 56.88 56.55 55.96 55.49 55.09
66.27 68.62 70.27 69.09 70.75 71.91 73.92 74.36 74.84 74.29 75.60 75.55 74.74 61.10 48.13 60.12 62.56 58.00 59.70 63.15 66.71 70.76 68.40 66.56 64.33 63.55 62.72 62.13 62.94 61.17 60.43 59.12 59.39 58.13 57.50 57.59 57.41 56.89 56.55 56.22 56.05 55.77 55.21
64.55 64.35 65.43 65.02 64.71 63.11 67.22 68.71 72.97 73.94 73.30 73.42 74.11 68.61 61.62 62.59 64.79 64.50 62.91 62.41 65.28 68.06 68.99 66.25 65.22 63.93 64.34 64.18 63.30 62.70 60.53 60.59 60.88 60.36 58.08 57.09 56.97 56.80 56.72 56.22 55.76 55.48 55.64
59.61 60.98 62.47 63.53 62.27 61.71 60.79 63.42 65.87 60.13 68.15 71.32 72.01 68.75 65.99 64.45 65.65 65.97 66.76 66.14 65.38 66.48 68.08 67.26 65.52 64.12 64.58 64.07 63.31 62.89 63.11 62.70 62.78 61.24 60.48 58.02 57.18 55.16 56.76 56.60 55.96 56.54 55.85
57.93 57.56 59.31 58.22 58.41 59.05 60.65 60.12 60.32 61.45 61.09 61.23 67.95 68.41 67.89 67.13 65.72 65.91 66.79 66.41 65.40 64.49 64.36 64.37 64.95 66.39 65.13 64.12 62.77 62.30 56.86 40.91 60.53 54.41 60.30 59.86 58.42 59.84 57.09 56.41 56.35 56.34 56.05
57.75 57.26 57.05 57.04 57.11 57.26 57.39 58.84 58.64 57.42 56.06 57.74 57.75 58.68 67.05 67.84 68.54 68.63 68.15 66.77 64.61 62.82 61.92 62.37 63.29 63.76 65.98 63.89 62.70 55.10 40.37 37.89 52.27 43.15 60.36 59.55 58.44 57.22 56.92 57.44 56.98 56.01 56.21
MSLP
1009.60 1010.14 1010.79 1011.29 1011.74 1012.23 1012.41 1012.58 1012.75 1012.93 1013.13 1013.38 1013.59 1013.58 1013.51 1013.36 1013.32 1013.38 1013.42 1013.30 1013.81 1014.40 1014.68 1014.68 1015.00 1014.90 1014.47 1014.29 1014.45 1014.38 1014.45 1014.36 1014.08 1014.52 1014.87 1015.09 1015.28 1015.49 1015.42 1015.06 1014.97 1015.50 1016.01
1008.75 1009.37 1009.95 1010.56 1011.06 1011.48 1011.82 1012.06 1012.33 1012.58 1012.85 1013.10 1013.26 1013.35 1013.36 1013.27 1013.27 1013.21 1013.28 1013.71 1014.17 1014.55 1014.62 1014.88 1015.12 1015.13 1015.00 1015.12 1015.10 1015.53 1015.38 1015.27 1014.87 1014.76 1015.03 1014.84 1015.20 1015.54 1015.28 1015.13 1015.17 1015.38 1016.04
1007.77 1008.72 1009.26 1009.90 1010.49 1010.93 1011.22 1011.66 1011.96 1012.22 1012.50 1012.65 1012.74 1012.98 1013.14 1013.16 1013.07 1012.97 1013.71 1014.22 1014.47 1014.54 1014.76 1015.21 1015.52 1015.98 1015.99 1016.03 1016.15 1015.58 1015.42 1015.50 1015.17 1014.95 1014.86 1015.06 1015.40 1015.62 1015.34 1015.21 1015.39 1015.76 1015.96
1006.85 1007.91 1008.62 1009.15 1009.80 1010.36 1010.78 1011.22 1011.58 1011.94 1012.15 1012.26 1012.45 1012.69 1012.91 1012.98 1012.83 1013.45 1014.20 1014.52 1014.65 1015.04 1015.29 1015.61 1016.15 1016.36 1016.53 1016.50 1016.36 1016.25 1016.22 1015.53 1015.29 1015.27 1015.49 1015.59 1015.91 1015.92 1015.85 1015.58 1015.61 1015.61 1015.90
1006.04 1007.09 1007.80 1008.46 1009.16 1009.75 1010.18 1010.65 1011.01 1011.43 1011.72 1011.96 1012.14 1012.30 1012.61 1012.64 1012.40 1013.66 1014.54 1014.80 1015.04 1015.39 1015.79 1016.24 1016.90 1017.45 1017.50 1017.20 1016.81 1017.32 1016.93 1016.57 1016.32 1016.13 1016.32 1016.42 1016.64 1016.52 1016.45 1016.21 1015.87 1015.76 1015.82
1005.42 1006.31 1007.18 1007.96 1008.52 1009.06 1009.62 1010.06 1010.54 1010.96 1011.32 1011.54 1011.86 1011.97 1012.20 1012.18 1013.14 1013.91 1014.45 1014.78 1015.29 1015.86 1016.61 1017.07 1017.56 1017.88 1018.04 1018.16 1018.37 1018.36 1018.20 1017.84 1017.95 1017.77 1017.59 1017.63 1017.79 1017.69 1017.20 1016.59 1015.98 1015.45 1015.57
1004.98 1005.98 1006.72 1007.42 1008.07 1008.60 1009.12 1009.62 1010.01 1010.52 1010.90 1011.26 1011.52 1011.81 1011.96 1013.22 1013.74 1014.19 1014.59 1014.98 1015.62 1016.23 1016.80 1016.97 1017.03 1018.06 1018.35 1018.57 1018.76 1018.62 1018.76 1018.94 1018.91 1018.89 1018.87 1018.78 1018.61 1018.36 1017.80 1016.81 1015.88 1015.50 1015.76
1005.01 1005.79 1006.38 1006.97 1007.56 1008.24 1008.81 1009.25 1009.70 1010.15 1010.48 1010.84 1011.26 1011.64 1012.12 1013.58 1014.13 1014.51 1014.81 1015.30 1015.92 1016.29 1016.63 1016.87 1017.61 1018.10 1018.43 1018.33 1018.48 1018.59 1018.97 1019.34 1019.21 1018.84 1019.04 1019.11 1019.26 1019.00 1017.97 1016.46 1015.83 1015.43 1015.53
1004.59 1005.32 1006.02 1006.64 1007.12 1007.63 1008.33 1008.99 1009.46 1009.90 1010.27 1010.60 1010.93 1011.36 1012.66 1014.15 1014.55 1014.80 1014.92 1015.55 1016.10 1016.45 1016.93 1017.41 1017.82 1018.40 1018.91 1018.96 1018.74 1018.82 1018.81 1018.96 1019.72 1019.43 1019.46 1019.60 1019.61 1019.25 1018.52 1016.95 1016.12 1015.62 1015.60
1004.12 1004.86 1005.56 1006.28 1006.84 1007.28 1007.74 1008.53 1009.16 1009.59 1009.95 1010.05 1010.68 1011.28 1012.84 1014.17 1014.80 1014.95 1015.06 1015.45 1016.08 1016.50 1017.22 1017.96 1018.31 1018.83 1019.28 1019.28 1018.89 1018.82 1019.01 1019.08 1018.95 1018.72 1019.15 1019.44 1019.02 1018.99 1019.08 1018.62 1017.77 1017.22 1017.18
1004.05 1004.65 1005.28 1005.86 1006.41 1006.98 1007.57 1008.17 1008.81 1009.16 1009.40 1010.09 1010.67 1011.99 1012.96 1013.98 1014.84 1015.02 1015.02 1015.23 1015.84 1016.43 1017.07 1017.84 1018.66 1019.26 1019.52 1019.54 1019.30 1019.11 1019.44 1019.30 1018.84 1018.56 1018.47 1018.63 1018.59 1018.91 1019.24 1019.75 1019.46 1018.82 1018.84
1003.76 1004.30 1004.99 1005.60 1005.96 1006.58 1007.42 1007.91 1008.48 1008.90 1009.38 1010.07 1011.11 1012.13 1013.18 1014.04 1014.68 1014.98 1015.36 1015.33 1015.65 1015.87 1016.55 1017.35 1018.88 1019.44 1019.73 1019.81 1019.59 1019.59 1019.62 1019.43 1018.50 1018.56 1018.56 1018.79 1019.02 1018.78 1019.48 1020.32 1020.38 1020.02 1019.84
1003.64 1004.22 1004.82 1005.46 1005.78 1006.24 1007.14 1007.69 1008.22 1008.76 1008.77 1009.88 1011.15 1012.10 1013.11 1013.88 1014.79 1015.46 1015.66 1015.57 1015.80 1015.87 1016.16 1017.40 1018.85 1019.53 1019.78 1019.84 1019.76 1019.74 1019.51 1018.80 1018.46 1018.66 1018.62 1018.87 1019.06 1019.22 1019.51 1020.08 1020.26 1020.16 1020.29
1003.58 1004.20 1004.79 1005.25 1005.64 1006.16 1006.82 1007.42 1007.45 1007.92 1007.94 1009.14 1010.18 1011.49 1012.41 1013.04 1014.00 1015.08 1015.50 1015.99 1016.22 1016.60 1017.07 1018.00 1018.59 1019.12 1019.38 1019.35 1019.59 1019.43 1019.09 1018.76 1018.81 1018.82 1018.89 1018.88 1019.12 1019.14 1018.91 1019.21 1019.16 1019.06 1019.40
1003.59 1004.03 1004.54 1004.84 1005.34 1006.05 1006.37 1007.09 1007.08 1006.98 1007.36 1008.11 1008.94 1010.32 1011.32 1011.81 1012.88 1013.84 1014.55 1015.04 1015.42 1016.32 1017.20 1018.10 1018.33 1018.43 1018.62 1018.92 1018.55 1018.89 1019.26 1019.05 1019.02 1018.97 1018.93 1019.02 1019.06 1019.25 1019.20 1019.05 1019.00 1019.04 1019.62
1003.35 1003.45 1003.65 1003.81 1004.87 1005.22 1006.09 1007.38 1008.30 1008.06 1007.89 1008.01 1008.46 1009.51 1010.54 1011.04 1012.66 1014.06 1014.63 1015.08 1015.29 1016.26 1016.81 1017.08 1017.37 1017.46 1017.46 1017.78 1018.09 1018.35 1018.67 1019.07 1019.22 1019.12 1019.11 1019.31 1019.28 1019.29 1019.32 1019.40 1019.45 1019.37 1019.85
1002.42 1002.76 1002.84 1003.06 1003.81 1004.22 1004.93 1006.04 1007.29 1009.08 1009.02 1009.38 1009.66 1009.91 1010.30 1011.58 1012.46 1014.16 1014.84 1014.93 1015.30 1016.08 1015.86 1016.04 1016.30 1016.73 1016.89 1016.99 1017.40 1017.84 1018.36 1018.82 1019.42 1019.32 1019.26 1019.29 1019.56 1019.43 1019.38 1019.57 1019.73 1019.84 1020.05
1003.29 1002.86 1002.39 1002.73 1002.64 1003.16 1004.06 1005.23 1006.04 1007.46 1008.59 1009.86 1010.87 1011.12 1011.19 1012.12 1012.99 1014.16 1015.06 1015.92 1016.56 1015.72 1014.82 1014.96 1015.23 1015.69 1016.25 1016.60 1017.08 1017.36 1018.17 1019.15 1019.11 1019.32 1019.29 1019.24 1019.33 1019.49 1019.56 1019.88 1020.07 1020.30 1020.56
1005.77 1004.68 1003.92 1003.23 1003.48 1004.06 1004.75 1005.25 1005.74 1006.80 1007.57 1009.15 1011.03 1012.31 1013.16 1013.42 1013.64 1014.08 1014.64 1014.37 1014.90 1014.70 1014.15 1014.26 1014.65 1015.16 1015.80 1016.38 1016.67 1017.26 1017.92 1018.42 1018.97 1019.24 1019.47 1019.48 1019.54 1019.73 1019.98 1020.18 1020.74 1020.81 1021.04
1006.90 1005.24 1005.80 1005.09 1005.20 1004.93 1005.58 1005.97 1006.66 1006.87 1007.63 1008.65 1010.20 1011.56 1013.77 1014.18 1014.85 1015.23 1015.12 1014.43 1013.98 1013.69 1013.48 1013.50 1014.20 1014.84 1015.50 1016.28 1016.73 1017.35 1018.17 1018.33 1018.79 1019.14 1019.26 1019.57 1019.60 1019.60 1019.96 1020.12 1020.33 1020.77 1021.20
1008.11 1008.09 1006.60 1007.05 1006.80 1006.18 1006.18 1005.96 1006.84 1007.83 1008.18 1008.44 1009.34 1010.48 1012.35 1012.82 1013.64 1013.77 1013.95 1013.85 1013.19 1012.87 1013.00 1013.09 1013.50 1014.48 1015.28 1016.08 1016.66 1017.08 1018.18 1018.37 1018.43 1018.52 1019.08 1019.37 1019.59 1019.53 1019.72 1020.23 1020.44 1020.90 1021.22
1010.67 1010.06 1009.14 1008.43 1007.80 1008.24 1008.50 1008.73 1008.75 1008.74 1008.16 1008.30 1009.47 1011.44 1012.25 1012.87 1012.95 1013.60 1013.66 1013.42 1013.26 1012.80 1012.54 1012.91 1013.03 1013.71 1014.70 1015.51 1016.12 1016.76 1017.25 1017.91 1017.97 1018.06 1018.67 1019.03 1019.32 1019.58 1019.81 1020.00 1020.37 1020.68 1021.23
1011.21 1010.97 1010.14 1008.98 1009.86 1009.28 1009.70 1010.06 1009.73 1009.75 1009.69 1009.59 1009.89 1010.88 1012.23 1012.40 1012.31 1012.57 1012.82 1013.15 1013.06 1012.68 1011.98 1012.16 1012.70 1012.96 1013.67 1014.48 1015.39 1016.15 1016.40 1017.05 1017.20 1017.64 1018.00 1018.59 1018.99 1019.35 1019.72 1019.98 1020.23 1020.63 1020.80
1011.78 1011.34 1010.01 1010.48 1010.78 1010.63 1011.75 1011.49 1011.25 1011.70 1010.81 1010.68 1010.72 1010.98 1011.29 1011.63 1011.85 1012.12 1012.38 1012.99 1013.10 1012.73 1012.01 1011.91 1012.28 1012.68 1013.20 1013.90 1014.78 1015.56 1015.83 1016.32 1016.82 1017.20 1017.70 1018.01 1018.56 1019.16 1019.44 1019.77 1020.11 1020.21 1020.74
1012.26 1012.16 1011.84 1012.59 1012.34 1011.98 1011.90 1011.85 1012.51 1012.98 1012.75 1012.81 1011.72 1011.50 1011.38 1011.43 1011.72 1011.95 1012.16 1012.51 1012.63 1012.67 1012.40 1011.84 1012.12 1012.56 1012.70 1013.34 1014.02 1014.60 1015.13 1015.85 1016.24 1016.82 1017.41 1017.64 1018.06 1018.82 1018.99 1019.36 1019.74 1020.20 1020.54
1013.19 1012.55 1011.53 1011.55 1011.55 1012.40 1012.15 1012.40 1013.92 1014.59 1013.96 1013.70 1013.37 1013.05 1011.92 1011.51 1011.32 1011.44 1011.62 1011.96 1012.18 1012.29 1012.42 1012.46 1012.28 1012.54 1012.71 1013.23 1013.74 1014.24 1014.82 1015.54 1015.94 1016.60 1016.93 1017.20 1017.55 1018.23 1018.88 1019.10 1019.43 1019.88 1020.28
Wind_Speed
17 17 16 14 14 12 12 11 10 9 8 7 7 8 8 8 7 7 5 7 5 7 5 5 7 4 6 8 8 8 8 8 7 6 7 7 6 8 9 8 8 7 9
16 14 15 13 12 12 12 12 11 9 8 8 7 6 7 7 7 5 5 6 5 6 5 6 6 5 5 6 7 6 6 6 7 4 3 7 7 9 8 4 4 7 7
17 16 14 13 12 11 12 10 10 9 9 8 7 6 6 6 7 5 5 5 6 6 7 7 7 7 7 7 9 8 5 5 6 6 7 8 8 8 9 6 3 7 4
18 16 15 15 13 13 12 11 11 10 9 9 7 6 5 6 6 5 7 6 8 7 8 8 8 7 7 6 6 5 6 7 4 7 8 8 10 10 9 9 6 5 6
17 17 16 15 14 14 13 12 11 10 9 8 7 6 6 6 4 9 6 8 9 9 10 10 10 12 17 18 8 8 8 9 8 9 8 8 10 10 11 8 6 2 3
16 17 15 13 13 12 12 12 11 10 9 7 7 6 5 1 13 16 9 10 10 10 10 11 10 12 14 14 13 15 12 8 10 10 9 9 11 11 9 8 5 6 7
15 15 15 14 13 12 12 11 11 10 9 8 7 6 5 10 11 12 8 10 10 10 10 9 9 8 9 9 8 11 9 8 9 9 9 10 11 11 10 11 8 6 5
14 14 14 14 14 12 11 10 10 9 9 8 8 7 7 8 11 11 7 11 10 10 9 9 9 8 6 6 6 8 10 10 9 8 8 8 9 11 12 9 11 2 3
15 14 14 14 14 13 12 11 10 9 8 8 8 8 11 11 9 10 9 11 11 10 9 9 8 8 5 8 6 5 5 7 4 3 6 6 2 9 15 10 11 9 6
15 15 13 13 13 13 12 11 10 9 9 8 9 10 13 14 9 11 10 10 11 9 8 8 9 9 4 6 3 4 6 7 5 7 6 6 4 8 17 13 10 10 10
13 13 12 12 11 11 11 10 10 10 10 8 9 10 12 14 13 10 7 9 9 9 8 8 8 8 4 6 9 4 5 5 3 2 6 8 7 9 10 11 12 11 9
12 13 13 12 11 11 11 11 10 9 10 8 11 9 8 12 11 9 4 5 10 9 9 8 9 8 6 4 2 2 5 9 4 6 7 8 7 6 8 7 11 12 9
11 11 12 12 12 11 11 11 10 10 10 10 8 9 8 9 10 8 3 10 5 8 9 14 16 9 8 6 3 4 5 5 5 6 7 7 6 5 10 8 8 13 12
11 11 11 11 11 12 11 11 11 11 10 11 11 10 10 11 12 10 9 10 11 11 17 14 12 9 2 9 4 6 4 6 5 5 6 7 6 6 6 6 3 5 9
12 12 13 12 12 11 9 6 10 11 9 11 11 11 13 13 13 14 14 12 12 11 13 10 10 9 8 6 5 6 5 5 4 4 6 5 6 7 6 6 6 8 10
12 11 11 11 11 11 10 7 14 14 12 14 10 11 12 10 22 15 14 10 18 20 11 11 10 9 9 8 7 6 6 3 4 4 5 6 5 6 6 7 7 9 8
11 12 10 10 12 11 11 10 9 7 16 16 12 10 8 15 22 16 11 18 22 15 9 11 10 9 9 8 8 7 7 6 3 3 5 6 5 5 5 7 7 8 8
5 6 8 10 10 10 7 8 8 8 8 7 13 9 13 19 19 17 16 12 10 10 10 10 10 10 9 9 8 8 8 7 6 4 4 5 5 5 6 6 6 7 7
11 9 8 4 5 3 5 3 4 7 8 8 6 8 10 14 12 15 18 13 13 12 10 10 9 10 9 9 7 7 9 8 7 6 4 5 5 6 6 7 7 6 7
10 17 8 6 6 8 5 4 3 0 6 7 7 8 8 6 7 9 9 8 12 12 11 10 10 9 9 7 7 7 7 7 8 7 6 6 6 7 8 8 7 7 8
10 8 7 9 11 11 11 5 7 6 4 3 5 9 11 10 11 12 13 11 11 12 12 10 10 10 7 8 8 8 7 8 10 9 8 7 7 7 7 7 7 8 7
8 8 8 9 9 9 7 6 6 7 6 3 6 8 16 3 6 8 10 11 10 9 10 9 9 11 11 11 9 9 10 10 10 10 9 9 8 8 8 8 8 9 9
7 7 7 12 9 11 10 11 9 5 5 7 7 9 9 7 8 11 10 10 7 7 9 11 11 11 11 11 11 10 11 11 10 9 11 10 9 9 9 8 9 9 9
10 10 12 10 10 10 9 9 10 12 10 4 3 3 4 7 9 10 9 10 8 7 5 10 11 15 13 12 11 11 10 10 9 10 12 11 11 9 10 9 10 10 10
10 10 11 8 9 9 8 10 10 10 11 9 9 1 1 4 7 7 8 8 8 6 6 5 3 12 14 17 17 19 16 12 15 13 11 13 13 13 11 10 10 10 11
11 11 11 13 14 12 10 12 10 7 9 10 10 11 7 4 7 8 8 9 8 8 6 4 5 11 16 17 18 21 12 13 14 13 13 11 12 12 11 12 15 10 12
Wind_Direction
206 204 210 214 217 218 227 228 233 240 250 260 266 274 284 293 297 297 306 308 39 82 89 63 67 19 10 27 29 26 31 360 28 16 22 72 359 22 350 350 9 121 84
199 206 202 208 214 215 220 226 227 230 236 245 255 269 283 290 295 292 313 23 93 101 97 102 74 62 40 15 82 47 36 47 355 26 74 34 31 25 351 3 31 49 52
192 198 201 203 207 215 217 220 225 229 230 243 246 250 269 280 291 322 52 95 99 108 96 90 83 69 50 51 36 17 33 43 8 18 17 40 19 18 1 39 54 111 48
186 194 202 202 203 210 216 218 219 223 226 232 236 247 256 267 274 81 110 113 103 99 86 87 86 84 78 71 55 49 14 340 27 28 21 27 22 11 5 7 25 36 38
181 191 196 200 202 208 210 212 214 210 214 227 224 226 232 251 241 121 107 122 113 109 102 95 76 74 65 44 56 44 15 23 19 29 24 24 18 6 11 354 359 89 92
182 191 190 194 199 204 206 201 197 194 205 206 210 224 231 358 107 121 149 133 123 108 106 105 107 97 73 67 72 63 44 44 43 17 27 19 17 3 353 335 341 341 13
186 189 189 187 197 198 204 204 194 192 195 193 205 211 218 114 128 133 167 124 131 122 129 144 123 112 113 110 116 116 80 48 58 50 40 31 17 2 337 321 338 18 36
190 192 193 191 193 192 198 194 186 186 191 187 189 199 128 122 138 143 155 130 130 134 141 114 119 134 76 84 92 82 81 72 57 59 62 55 44 10 343 336 335 149 179
196 196 196 194 192 186 191 189 181 186 184 185 187 181 129 139 152 155 152 141 132 131 121 133 131 116 53 11 94 91 83 126 182 132 108 114 100 28 18 14 13 22 29
194 193 192 191 195 192 180 176 180 185 178 187 183 152 132 147 181 174 173 135 143 134 131 115 88 119 71 357 107 105 82 64 38 84 154 176 123 71 47 23 22 31 25
194 188 186 186 190 185 174 169 176 185 163 206 143 137 140 157 175 210 232 152 147 152 145 151 128 117 91 31 5 71 106 168 227 44 58 59 53 61 58 38 39 42 44
189 184 180 180 190 173 175 167 174 177 153 166 146 135 138 159 169 207 276 206 162 147 161 135 130 132 106 32 54 147 273 295 62 61 55 57 41 44 78 86 67 61 61
180 178 176 179 192 158 173 169 171 181 172 150 154 146 154 168 168 101 163 124 73 167 138 122 125 137 136 114 143 254 280 240 75 66 64 66 61 21 122 130 126 110 66
169 173 174 176 185 160 178 178 187 185 192 169 178 173 170 167 166 170 161 123 112 101 112 130 149 153 265 115 188 227 243 50 63 72 69 81 72 53 51 154 135 68 88
172 173 178 181 183 168 199 182 208 186 202 185 186 179 179 180 178 172 171 171 160 145 140 145 162 168 166 177 194 112 144 168 104 81 78 74 78 71 49 48 62 67 66
170 174 180 178 182 179 169 148 47 36 49 51 142 174 190 158 145 170 168 153 130 148 158 168 179 180 170 180 162 166 126 144 121 106 92 86 74 70 68 65 68 73 75
175 166 172 216 174 181 186 188 179 75 64 47 48 61 139 150 146 154 149 144 149 163 175 179 181 183 186 170 171 166 158 132 147 120 112 110 109 103 87 76 77 79 81
106 62 195 201 179 186 170 198 194 180 185 166 50 47 123 143 139 133 138 132 163 208 193 187 185 182 183 175 178 170 133 162 162 156 143 118 115 111 101 91 84 83 82
1 26 336 104 64 79 158 200 202 180 178 152 130 79 60 67 102 135 165 173 183 196 209 191 189 182 184 178 173 169 148 172 156 164 154 137 118 102 91 88 75 63 91
359 35 18 1 145 162 153 152 55 171 121 144 175 144 135 116 161 165 192 217 198 201 208 194 184 185 171 184 169 151 174 160 156 180 162 157 152 142 136 140 129 109 100
360 360 41 40 17 28 11 34 133 166 174 189 162 148 173 173 180 183 190 214 210 203 203 203 180 179 171 175 173 160 181 178 178 174 170 171 174 151 137 131 128 119 115
352 6 40 43 45 38 24 19 9 2 349 178 150 125 158 209 166 185 208 216 229 233 203 194 198 172 186 186 180 176 176 194 187 173 176 173 177 168 160 155 150 133 135
8 18 38 54 30 35 25 14 359 349 353 347 8 134 174 199 208 197 197 211 247 256 212 194 202 176 184 178 176 184 183 195 188 178 177 180 181 177 175 171 155 163 156
23 17 36 37 44 51 35 17 19 0 349 355 343 34 157 194 219 224 218 219 223 253 253 210 198 205 177 183 171 183 204 186 184 181 182 183 185 177 182 181 179 172 152
37 27 36 39 39 32 35 33 21 4 4 351 348 112 220 225 216 228 211 208 217 241 274 217 185 220 190 183 179 188 192 184 179 177 188 189 189 179 194 188 185 180 175
20 27 30 22 20 14 24 27 17 359 4 356 356 348 317 238 244 226 221 219 210 216 233 273 209 247 200 193 193 195 166 173 174 188 183 195 188 180 206 201 187 190 184